Content
SEND FEEDBACK

Daily
Averages
Monthly
Summary
United States of America

KING SALMON, ALASKA


Home > North America > United States > Alaska
Elevation: 5 feet     Latitude: 58 41N     Longitude: 156 39W

WEATHER
 
SELECT A DAY
Number of Records: 214,456;   Date Range: 1/1/95 - 12/21/14
 
SHARE

PRINT THIS DATA

[ ← Previous Day ]
WEATHER ALMANAC - JANUARY 23, 2013
[ Next Day → ]
[ °C ]   °F
Weather ElementAverageHighLow
Temperature28.3 °F37 °F (1:54 am)19 °F (10:54 pm)
Dewpoint24.5 °F33.1 °F (1:54 am)15.1 °F (10:54 pm)
Humidity85.7 %93 % (10:54 am)78 % (2:54 pm)
Barometer29.22 in29.26 in (11:54 pm)29.20 in (1:54 pm)
Wind Speed12.8 mph18.4 mph (1:54 pm)
Wind Gust25.3 mph (1:54 pm)
Weather ElementAverage
Visibility10 mi
Wind DirectionSSW (200 °)

Weather ElementTotal
Precipitation---
Heating Degree Days37 (Base 65)
Averaged from 22 records on January 23, 2013
WEATHER CONDITIONS BREAKOUT
WIND DIRECTION BREAKOUT
WEATHER BY HOUR - JANUARY 23, 2013
[ °C ]   °F
Local TimeTemperatureDewpointHumidityBarometerVisibilityWind DirectionWind SpeedGust SpeedPrecipitationEventsConditions
1:54 AM37.0 °F33.1 °F86 %29.25 in10.0 miNorth (10°)8.1 mphOvercast
2:54 AM37.0 °F33.1 °F86 %29.25 in10.0 miNorth (10°)10.4 mphOvercast
3:54 AM37.0 °F33.1 °F86 %29.24 in10.0 miNNE (20°)8.1 mphOvercast
4:54 AM37.0 °F33.1 °F86 %29.23 in10.0 miNorth (10°)9.2 mphMostly Cloudy
5:54 AM35.1 °F32.0 °F89 %29.23 in10.0 miNorth (360°)9.2 mphOvercast
6:54 AM33.1 °F30.9 °F92 %29.21 in10.0 miNorth (350°)5.8 mphClear
7:54 AM33.1 °F30.9 °F92 %29.21 in10.0 miNNE (20°)16.1 mph23.0 mphClear
8:54 AM28.9 °F27.0 °F92 %29.21 in10.0 miNorth (350°)13.8 mphScattered Clouds
9:54 AM30.0 °F28.0 °F92 %29.22 in10.0 miNNE (20°)11.5 mphScattered Clouds
10:54 AM30.2 °F28.4 °F93 %29.22 in10.0 miNorth (360°)17.3 mphScattered Clouds
12:54 PM30.2 °F26.6 °F86 %29.22 in10.0 miNorth (360°)17.3 mphMostly Cloudy
1:54 PM28.0 °F23.0 °F81 %29.20 in10.0 miNorth (10°)18.4 mph25.3 mphMostly Cloudy
2:54 PM28.9 °F23.0 °F78 %29.20 in10.0 miNorth (360°)10.4 mph21.9 mphMostly Cloudy
3:54 PM25.0 °F19.9 °F81 %29.20 in10.0 miNorth (360°)16.1 mphScattered Clouds
4:54 PM25.0 °F19.9 °F81 %29.20 in10.0 miNorth (10°)15.0 mph21.9 mphMostly Cloudy
5:54 PM23.0 °F18.0 °F81 %29.21 in10.0 miNorth (350°)16.1 mphMostly Cloudy
6:54 PM21.9 °F18.0 °F85 %29.21 in10.0 miNorth (360°)11.5 mphMostly Cloudy
7:54 PM21.9 °F17.1 °F82 %29.22 in10.0 miNorth (360°)16.1 mphScattered Clouds
8:54 PM21.0 °F17.1 °F85 %29.23 in10.0 miNorth (10°)12.7 mphScattered Clouds
9:54 PM21.0 °F16.0 °F81 %29.23 in10.0 miNorth (10°)15.0 mphScattered Clouds
10:54 PM19.0 °F15.1 °F85 %29.25 in10.0 miNorth (350°)13.8 mphPartly Cloudy
11:54 PM19.0 °F15.1 °F85 %29.26 in10.0 miNorth (350°)9.2 mphPartly Cloudy
Hourly data recorded from PAKN, located miles away from King Salmon, Alaska







STORIES FROM OUR PARTNERS